Location: ?????????
(54.7630°N, 39.4991°E)
Time: 08:36:36
(UTC+00:00)

Meteor 2-21 Rocket - Pass Details

Date: 14 April 2026
Orbit: 936 x 967 km, 82.5° (Epoch: 9 May)

Event Time Altitude Azimuth Distance (km) Brightness Sun altitude
Rises 18:28:26 0° 347° (NNW) 3,621 8.5 -16.1°
Reaches altitude 10° 18:30:55 10° 347° (NNW) 2,676 7.7 -16.3°
Maximum altitude 18:37:03 81° 262° (W) 969 4.5 -16.9°
Enters shadow 18:41:37 19° 176° (S) 2,102 5.8 -17.4°
